Location: Tuttlingen
(47.9853°N, 8.8165°E)
Time: 15:42:59
(UTC+02:00)

Tiangong 2 - Visible Passes

Search period start: 17 July 2018 00:00
Search period end: 27 July 2018 00:00
Orbit: 386 x 394 km, 42.8° (Epoch: 17 July)

Date Brightness Start Highest point End Pass type
(mag) Time Alt. Az. Time Alt. Az. Time Alt. Az.
17 Jul 2.1 22:43:49 10° WSW 22:46:40 30° S 22:47:59 21° SE visible
18 Jul 2.8 23:23:03 10° WSW 23:25:03 20° SSW 23:25:03 20° SSW visible
19 Jul 2.4 22:25:16 10° WSW 22:27:59 26° SSW 22:29:46 16° SE visible
20 Jul 3.2 23:04:51 10° WSW 23:06:45 15° SSW 23:06:46 15° SSW visible
21 Jul 2.9 22:06:50 10° WSW 22:09:15 20° SSW 22:11:29 11° SSE visible
